DateTimeUTC,F1_A11,F1_S11,BsB_S11,BsG_S11,BsR_S11,BbsB_S11,BbsG_S11,BbsR_S11,BaB_A11,BaG_A11,BaR_A11,Tu_S11,T_S11,Uu_S11,U_S11,P_S11,T1_A11
2021-05-13T13:00:00Z,00000200,20000000,,,,,,,0000.04,-000.24,0000.12,16.9,23.5,01.7,01.1,0673.7,30.9
2021-05-13T13:01:00Z,00000200,20000000,,,,,,,0000.23,0000.56,0000.32,16.9,23.5,01.7,01.1,0673.7,30.9
2021-05-13T13:02:00Z,00000200,20000000,,,,,,,-000.04,-000.30,-000.19,16.9,23.5,01.7,01.1,0673.7,30.9
2021-05-13T13:03:00Z,00000200,60000000,,,,,,,0000.35,0000.09,-000.12,16.9,23.5,01.7,01.1,0673.7,30.9
2021-05-13T13:04:00Z,00000200,41000000,0000.34,0000.12,0000.48,-000.08,-000.05,0000.06,0000.04,0000.50,0000.38,17.0,23.3,01.8,01.2,0674.6,30.9
2021-05-13T13:05:00Z,00000200,01000000,0000.17,0000.20,0000.38,-000.14,-000.24,0000.21,0000.47,0000.44,0000.13,17.0,23.3,02.0,01.4,0674.7,30.9
2021-05-13T13:06:00Z,00000200,00000000,0000.07,0000.21,0000.37,-000.29,0000.18,0000.06,-000.12,0000.04,0000.04,17.0,23.3,01.9,01.3,0674.7,30.8
2021-05-13T13:07:00Z,00000200,01000000,0000.24,0000.43,0000.23,-000.07,0000.04,0000.08,0000.42,0000.25,0000.46,17.0,23.2,02.0,01.4,0674.7,30.8
2021-05-13T13:08:00Z,00000200,00000000,0000.30,0000.80,0000.27,0000.18,-000.07,0000.24,0000.27,-000.14,0000.01,17.0,23.2,01.9,01.3,0674.7,30.8
2021-05-13T13:09:00Z,00000200,01000000,0000.54,0000.33,-000.06,-000.34,-000.24,-000.17,0000.26,0000.25,0000.20,17.0,23.2,01.9,01.3,0674.7,30.8
2021-05-13T13:10:00Z,00000200,01000000,0000.80,0000.13,0000.49,0000.41,0000.13,0000.18,-000.10,0000.11,-000.04,17.0,23.2,01.9,01.3,0674.7,30.8
2021-05-13T13:11:00Z,00000200,01000000,0000.50,0000.23,0000.19,0000.16,-000.00,0000.40,0000.40,0000.22,0000.20,17.0,23.2,01.8,01.3,0674.7,30.8
2021-05-13T13:12:00Z,00000200,00000000,0000.37,0000.59,0000.29,0000.10,-000.09,0000.09,0000.20,-000.07,0000.29,17.0,23.2,01.9,01.3,0674.7,30.8
2021-05-13T13:13:00Z,00000200,01000000,0000.58,0000.09,0000.28,0000.23,0000.04,0000.25,0000.23,0000.60,0000.14,17.0,23.1,01.9,01.3,0674.7,30.8
2021-05-13T13:14:00Z,00000200,01000000,0000.94,0000.35,0000.19,0000.10,-000.00,0000.05,-000.15,0000.07,0000.19,17.0,23.2,01.9,01.3,0674.7,30.8
2021-05-13T13:15:00Z,00000200,01000000,0000.22,0000.41,0000.21,0000.30,-000.01,0000.03,0000.65,0000.24,0000.00,17.0,23.1,01.9,01.3,0674.7,30.8
2021-05-13T13:16:00Z,00000200,00000000,0000.48,0000.33,0000.18,0000.19,-000.03,-000.05,0000.29,0000.48,0000.19,17.0,23.1,01.9,01.3,0674.7,30.8
2021-05-13T13:17:00Z,00000200,01000000,0000.26,0000.14,0000.33,-000.06,0000.29,-000.01,-000.17,0000.09,-000.02,17.0,23.1,01.9,01.3,0674.7,30.8
2021-05-13T13:18:00Z,00000200,01000000,-000.39,0000.42,0000.23,-000.25,0000.24,0000.21,0000.53,0000.22,0000.22,17.0,23.1,01.9,01.3,0674.7,30.8
2021-05-13T13:19:00Z,00000200,00000000,0000.53,0000.21,0000.40,0000.09,0000.26,0000.12,-000.07,0000.27,0000.21,16.9,23.1,01.9,01.3,0674.7,30.8
2021-05-13T13:20:00Z,00000200,00000000,0000.26,0000.31,0000.10,-000.45,-000.02,0000.36,0000.60,-000.00,0000.14,16.9,23.1,01.9,01.3,0674.7,30.8
2021-05-13T13:21:00Z,00000200,01000000,-000.09,-000.01,0000.31,0000.05,-000.18,0000.16,0000.15,0000.28,0000.38,16.9,23.1,01.9,01.3,0674.7,30.8
2021-05-13T13:22:00Z,00000200,00000000,0000.61,0000.55,0000.38,0000.71,-000.00,0000.16,0000.22,0000.11,0000.02,16.9,23.1,02.0,01.4,0674.7,30.8
2021-05-13T13:23:00Z,00000200,00000000,0000.81,0000.15,0000.29,0000.24,-000.21,0000.22,0000.23,0000.13,0000.35,16.9,23.1,01.9,01.3,0674.7,30.8
2021-05-13T13:24:00Z,00000200,00000000,0000.42,0000.43,0000.32,0000.08,0000.09,0000.09,0000.32,0000.24,0000.11,16.9,23.1,01.9,01.3,0674.7,30.8
2021-05-13T13:25:00Z,00000200,00000000,0000.51,0000.07,0000.28,0000.25,0000.16,0000.01,-000.08,-000.01,-000.28,16.9,23.1,02.0,01.4,0674.7,30.8
2021-05-13T13:26:00Z,00000200,00000000,0001.01,0000.13,0000.14,0000.37,0000.00,0000.06,0000.24,0000.02,0000.37,17.0,23.1,01.9,01.3,0674.7,30.9
2021-05-13T13:27:00Z,00000200,00000000,0000.33,0000.40,0000.25,-000.08,0000.08,0000.10,-000.11,0000.48,0000.19,17.0,23.2,01.8,01.3,0674.7,30.9
2021-05-13T13:28:00Z,00000200,01000000,0000.14,0000.39,0000.32,-000.00,-000.04,0000.30,0000.25,0000.24,0000.05,17.1,23.2,01.8,01.2,0674.7,30.9
2021-05-13T13:29:00Z,00000200,00000000,0000.52,0000.55,0000.17,-000.34,-000.04,0000.29,0000.52,0000.15,-000.11,17.1,23.2,01.9,01.3,0674.7,30.9
2021-05-13T13:30:00Z,00000200,01000000,0000.75,0000.40,0000.20,-000.33,0000.19,0000.20,-000.09,0000.14,0000.39,17.1,23.2,01.9,01.3,0674.7,30.9
2021-05-13T13:31:00Z,00000200,01000000,0000.37,0000.20,0000.43,0000.31,-000.04,0000.20,0000.14,0000.10,-000.21,17.2,23.2,01.7,01.2,0674.7,30.9
2021-05-13T13:32:00Z,00000200,01000000,-000.13,0000.19,0000.24,0000.14,-000.14,0000.08,0000.50,0000.30,0000.44,17.2,23.3,01.7,01.1,0674.8,30.9
2021-05-13T13:33:00Z,00000200,01000000,0000.04,0000.32,0000.32,0000.36,0000.11,0000.23,-000.17,0000.02,0000.26,17.2,23.2,01.8,01.2,0674.8,30.9
2021-05-13T13:34:00Z,00000200,01000000,-000.21,0000.49,0000.40,0000.03,0000.04,0000.19,0000.29,0000.24,-000.06,17.2,23.2,01.7,01.2,0674.7,30.9
2021-05-13T13:35:00Z,00000200,01000000,0000.87,0000.14,0000.17,-000.48,0000.02,0000.08,0000.14,-000.24,0000.24,17.2,23.2,01.7,01.2,0674.8,30.9
2021-05-13T13:36:00Z,00000200,01000000,0000.65,0000.44,0000.43,-000.07,0000.05,0000.30,0000.23,0000.70,0000.25,17.2,23.2,01.7,01.2,0674.8,30.9
2021-05-13T13:37:00Z,00000200,01000000,0000.80,0000.51,0000.12,-000.36,-000.29,0000.34,0000.21,-000.15,0000.02,17.1,23.2,01.7,01.1,0674.8,30.9
2021-05-13T13:38:00Z,00000200,01000000,0000.48,0000.46,0000.45,0000.50,0000.14,0000.31,-000.15,0000.45,0000.05,17.1,23.2,01.7,01.2,0674.8,30.9
2021-05-13T13:39:00Z,00000200,01000000,0000.39,0000.33,0000.27,0000.21,-000.11,-000.19,0000.78,0000.27,0000.31,17.1,23.2,01.7,01.1,0674.8,30.9
2021-05-13T13:40:00Z,00000200,01000000,0000.60,0000.39,0000.24,0000.28,0000.22,0000.08,0000.04,0000.21,0000.03,17.1,23.2,01.7,01.2,0674.8,30.9
2021-05-13T13:41:00Z,00000200,01000000,0000.84,0000.29,0000.32,0000.22,0000.29,0000.13,-000.02,0000.38,0000.29,17.1,23.3,01.7,01.2,0674.8,30.9
2021-05-13T13:42:00Z,00000200,01000000,-000.02,0000.42,0000.12,0000.08,0000.12,-000.13,0000.50,-000.39,0000.04,17.2,23.3,01.7,01.1,0674.8,30.9
2021-05-13T13:43:00Z,00000200,01000000,0000.03,0000.08,0000.16,-000.30,-000.07,-000.04,0000.03,0000.31,-000.06,17.2,23.3,01.7,01.1,0674.8,30.9
2021-05-13T13:44:00Z,00000200,01000000,-000.13,0000.38,0000.38,0000.34,-000.08,0000.12,0000.11,-000.06,0000.38,17.2,23.3,01.7,01.2,0674.8,30.9
2021-05-13T13:45:00Z,00000200,01000000,0000.29,0000.29,0000.25,0000.03,0000.29,0000.14,0000.35,0000.26,0000.18,17.2,23.3,01.6,01.1,0674.8,30.9
2021-05-13T13:46:00Z,00000200,01000000,0000.33,0000.21,0000.56,0000.12,0000.14,0000.26,-000.17,-000.12,-000.37,17.2,23.3,01.6,01.1,0674.8,30.9
2021-05-13T13:47:00Z,00000200,01000000,0000.87,0000.55,0000.41,-000.33,0000.07,0000.18,0000.17,0000.32,0000.19,17.2,23.3,01.5,01.0,0674.8,30.9
2021-05-13T13:48:00Z,00000200,01000000,0000.38,0000.20,0000.46,-000.22,-000.02,0000.17,0000.35,0000.29,-000.07,17.2,23.3,01.5,01.0,0674.8,30.9
2021-05-13T13:49:00Z,00000200,01000000,0001.25,0000.40,0000.21,0000.16,0000.03,0000.10,0000.07,-000.04,0000.35,17.2,23.3,01.5,01.0,0674.8,30.9
2021-05-13T13:50:00Z,00000200,01000000,-000.20,0000.13,0000.24,-000.10,0000.21,0000.11,-000.09,0000.08,0000.09,17.2,23.3,01.5,01.0,0674.8,30.9
2021-05-13T13:51:00Z,00000200,01000000,0000.15,0000.35,0000.13,0000.28,-000.07,0000.28,0000.09,0000.18,-000.08,17.2,23.3,01.3,00.9,0674.8,30.9
2021-05-13T13:52:00Z,00000200,01000000,0000.21,0000.39,0000.14,0000.30,0000.02,0000.11,0000.72,0000.49,0000.19,17.2,23.3,01.4,01.0,0674.8,30.9
2021-05-13T13:53:00Z,00000200,01000000,0000.33,0000.24,0000.17,0000.38,0000.09,0000.41,-000.11,-000.05,-000.04,17.2,23.3,01.5,01.0,0674.8,30.9
2021-05-13T13:54:00Z,00000200,01000000,0000.53,0000.25,0000.12,-000.27,0000.13,0000.23,0000.10,0000.23,0000.58,17.2,23.2,01.5,01.0,0674.8,30.9
2021-05-13T13:55:00Z,00000200,01000000,0000.10,0000.48,0000.32,-000.16,-000.05,0000.01,0000.35,0000.24,-000.31,17.1,23.2,01.4,00.9,0674.8,30.9
2021-05-13T13:56:00Z,00000200,01000000,-000.78,0000.46,0000.38,-000.07,0000.15,-000.04,0000.05,-000.18,0000.07,17.2,23.2,01.3,00.9,0674.8,30.8
2021-05-13T13:57:00Z,00000200,41000000,,,,,,,0000.38,0000.36,0000.45,17.2,23.3,01.5,01.0,0674.7,30.9
2021-05-13T13:58:00Z,00000200,61000000,,,,,,,-000.45,-000.50,0000.02,16.9,23.4,01.2,00.8,0673.9,30.9
2021-05-13T13:59:00Z,00000200,21000000,,,,,,,-000.31,-000.04,-000.47,16.9,23.5,01.2,00.8,0673.8,30.9
